Flag for Canada Weather past 2 weeks in Ottawa, Ontario, Canada

Now
73 °F

Passing clouds.


Feels Like: 72 °F
Forecast: 69 / 93 °F
Wind: 6 mph from South

Location: Ottawa Int'L. Ont.

Current Time: Jul 29, 2015 at 1:11:38 AM

Latest Report: Jul 29, 2015 at 12:00 AM


Visibility: 15 mi

Pressure: 29.94 "Hg

Humidity: 89%

Dew point: 70 °F

Location of OttawaLocation

Historic Weather in Ottawa — Graph

°F

Ottawa temperature yesterday

Maximum temperature yesterday: 93 °F (at 4:00 PM)
Minimum temperature yesterday: 64 °F (at 3:00 AM)
Average temperature yesterday: 78 °F

Past Weeks' High & Low Weather Summary

 TemperatureHumidityPressure
High93 °F (Jul 28, 4:00 PM)100% (Jul 17, 11:00 PM)30.16 "Hg (Jul 17, 11:00 PM)
Low48 °F (Jul 17, 5:00 AM)36% (Jul 16, 4:00 PM)29.53 "Hg (Jul 14, 6:00 PM)
Average70 °F73%29.84 "Hg
* Reported Jul 13 11:00 PM — Jul 28 11:00 PM, Ottawa, Weather by CustomWeather, © 2015

Note: Actual official high and low records may vary slightly from our data, if they occured in-between our weather recording intervals... More about our weather records

Advertising

Ottawa weather history for previous 24 hours

 ConditionsComfort  
Time TempWeatherWind HumidityBarometerVisibility
11:00 PM
Tue, Jul 28
75 °FPassing clouds.3 mph83%29.94 "Hg15 mi
10:00 PM75 °FPartly cloudy.5 mph83%29.94 "Hg15 mi
9:00 PM77 °FPartly sunny.5 mph79%29.93 "Hg15 mi
8:00 PM81 °FScattered clouds.9 mph70%29.93 "Hg15 mi
7:00 PM90 °FPassing clouds.9 mph41%29.93 "Hg15 mi
6:00 PM91 °FPassing clouds.10 mph38%29.92 "Hg15 mi
5:00 PM91 °FPassing clouds.12 mph41%29.92 "Hg15 mi
4:00 PM93 °FScattered clouds.14 mph39%29.93 "Hg15 mi
3:00 PM91 °FScattered clouds.8 mph41%29.93 "Hg15 mi
2:00 PM90 °FScattered clouds.3 mph52%29.95 "Hg15 mi
1:00 PM88 °FBroken clouds.8 mph52%29.94 "Hg15 mi
12:00 PM84 °FPassing clouds.6 mph58%29.97 "Hg15 mi
11:00 AM82 °FPassing clouds.6 mph62%29.98 "Hg15 mi
10:00 AM81 °FPassing clouds.7 mph66%29.98 "Hg15 mi
9:00 AM77 °FPassing clouds.5 mph74%29.99 "Hg15 mi
8:00 AM72 °FScattered clouds.3 mph88%29.99 "Hg15 mi
7:00 AM66 °FFog.2 mph100%29.99 "Hg15 mi
6:00 AM64 °FPassing clouds.2 mph100%29.99 "Hg15 mi
5:00 AM64 °FPassing clouds.3 mph100%29.98 "Hg15 mi
4:00 AM64 °FPassing clouds.No wind100%29.98 "Hg15 mi
3:00 AM64 °FClear.3 mph100%29.97 "Hg15 mi
2:00 AM66 °FPassing clouds.3 mph100%29.97 "Hg15 mi
1:00 AM70 °FPassing clouds.5 mph88%29.97 "Hg15 mi
Weather by CustomWeather, © 2015

See weather overviewHow to use our weather pages